Regional Weather Roundup
Issued by NWS

Home | Current Version | Previous Version | Graphics & Text | Print | Product List | Glossary On
Versions: 1 2 3 4 5 6 7 8 9 10 11 12 13 14 15 16 17 18 19 20 21 22 23 24 25 26 27 28 29 30 31 32 33 34 35 36 37 38 39 40 41 42 43 44 45 46 47 48 49 50
000
ASUS43 KIND 281709
RWRIN

WEATHER ROUNDUP FOR INDIANA
NATIONAL WEATHER SERVICE INDIANAPOLIS IN
100 PM EDT WED SEP 28 2016

NOTE: "FAIR" INDICATES FEW OR NO CLOUDS BELOW 12,000 FEET WITH NO
SIGNIFICANT WEATHER AND/OR OBSTRUCTIONS TO VISIBILITY.

* - STATION DOES NOT REPORT WEATHER SUCH AS PRECIPITATION OR FOG.

+ - STATION NOT QUALITY CONTROLLED BY THE NATIONAL WEATHER SERVICE.
    USE DATA WITH CAUTION...ESPECIALLY DEWPOINT AND RELATIVE
    HUMIDITY OBSERVATIONS.

INZ001>003-010>013-019-020-281800-
NORTHWEST INDIANA

CITY           SKY/WX    TMP DP  RH WIND       PRES   REMARKS
GARY /AIRPORT/ LGT RAIN  55  52  88 NW13G25   29.88S
KNOX *+        CLOUDY    57  32  38 NE9       29.84S
LA PORTE +     CLOUDY    57  55  93 NE12      29.86S
MICHIGAN CITY+ CLOUDY    55  48  76 MISG      29.87S
MONTICELLO +   CLOUDY    58  47  66 N6        29.85R
RENSSELAER +   PTSUNNY   61  46  59 NW9G16    29.86S
VALPARAISO     CLOUDY    57  48  72 N8        29.86S

$$

LMZ046-743>745-281800-
SOUTHERN LAKE MICHIGAN

STATION/POSITION TIME  TEMP    WIND        PRES    WAVE
                       AIR SEA DIR/SP/G            HT
                 (UTC) (F)     (DEG/KT/KT) (MB)    (FT)
BURNS HARBOR     1640   60      30/ 22/ 25 1011.2S
MICHIGAN CITY    1640   57      20/ 18/ 20   N/A
5NW MICH CITY    1700   59 66   60/ 16/ 19   N/A     4

$$

INZ004-005-014>016-021>024-281800-
NORTH CENTRAL INDIANA

CITY           SKY/WX    TMP DP  RH WIND       PRES   REMARKS
ELKHART        CLOUDY   N/A N/A N/A CALM      29.87R
GOSHEN         CLOUDY    63  46  54 E7        29.85R
LOGANSPORT +   CLOUDY    59  52  77 N8        29.85R
PERU/GRISSOM   CLOUDY    59  50  72 NE6       29.82S
ROCHESTER +    CLOUDY    61  54  77 SE3       29.85S
SOUTH BEND     CLOUDY    55  47  74 E5        29.87S
WARSAW +       CLOUDY    63  43  48 E6        29.85S

$$

INZ006>009-017-018-025>027-281800-
NORTHEAST INDIANA

CITY           SKY/WX    TMP DP  RH WIND       PRES   REMARKS
ANGOLA *+        N/A     61  52  72 SE7       29.86S
AUBURN +       PTSUNNY   61  48  63 E3        29.86S
FORT WAYNE     LGT RAIN  57  53  86 SE10      29.85F
HUNTINGTON +   LGT RAIN  56  54  92 CALM      29.84S
KENDALLVILLE + CLOUDY    57  53  86 SE3       29.87R

$$

INZ028-029-035-036-043>045-051>053-281800-
WEST CENTRAL INDIANA

CITY           SKY/WX    TMP DP  RH WIND       PRES   REMARKS
GREENCASTLE +  PTSUNNY   63  57  82 CALM      29.83S
LAFAYETTE      CLOUDY    61  50  67 N13       29.84R
TERRE HAUTE    PTSUNNY   64  53  67 NW12      29.83R

$$

INZ030>032-037>040-046>048-054>057-064-065-281800-
CENTRAL INDIANA

CITY           SKY/WX    TMP DP  RH WIND       PRES   REMARKS
ANDERSON       PTSUNNY   57  54  88 SE6       29.83R
COLUMBUS       LGT RAIN  57  57 100 CALM      29.83S
FISHERS *+     CLOUDY    61  59  94 W3        29.83R
FRANKFORT +    CLOUDY    64  51  62 N8        29.84S
GREENWOOD *+   CLOUDY    61  59  94 E9        29.82F
INDIANAPOLIS   CLOUDY    61  55  81 SE8       29.81S
-EAGLE CREEK   CLOUDY    64  56  75 CALM      29.82R
MARION +       CLOUDY    60  55  82 E7        29.84R
MT COMFORT *+  CLOUDY    57  55  94 SE7       29.82S
SHELBYVILLE    CLOUDY    60  55  83 NE8       29.82F
ZIONSVILLE +   CLOUDY    60  53  76 SW7       29.83S

$$

INZ033-034-041-042-049-050-058-059-281800-
EAST CENTRAL INDIANA

CITY           SKY/WX    TMP DP  RH WIND       PRES   REMARKS
MUNCIE         CLOUDY    59  55  87 SE7       29.82F

$$

INZ060-061-067>069-081>083-085>088-281800-
SOUTHWEST INDIANA

CITY           SKY/WX    TMP DP  RH WIND       PRES   REMARKS
EVANSVILLE     RAIN      61  58  90 W7        29.85R
HUNTINGBURG *+   N/A     59  54  82 S5        29.84R
WASHINGTON +   CLOUDY    61  58  88 MISG      29.82S

$$

INZ062-063-066-070>080-084-089>092-281800-
SOUTH CENTRAL AND SOUTHEAST INDIANA

CITY           SKY/WX    TMP DP  RH WIND       PRES   REMARKS
BLOOMINGTON    CLOUDY    61  54  77 CALM      29.82S
MADISON *+     CLOUDY    61  55  82 CALM      29.86F
NORTH VERNON + HVY RAIN N/A N/A N/A CALM      29.86R
SEYMOUR +      LGT RAIN  63  57  82 E3        29.82F

$$





USA.gov is the U.S. government's official web portal to all federal, state and local government web resources and services.